Sie sind vermutlich noch nicht im Forum angemeldet - Klicken Sie hier um sich kostenlos anzumelden  

Synchrondatenbank (von Arne Kaul) | Deutsche Synchronkartei | Seriensynchron - SeSyDaB | dubDB | Die vergessenen Filme || Datenschutz
Sie können sich hier anmelden
Dieses Forum hat 1.076 Themen
und zur Zeit 17.738 Beiträge
Sie haben keine Schreibrechte
 Games  »Neues Thema erstellen«
Forum Information
   Betreff Absender Antworten Zugriffe Letzter Beitrag
Divinity 2 - The Dragon Knight Saga Alamar 2 2.273 24.11.2010 01:14
Myst V: End of Ages (2005) Kirk20 0 452 23.11.2010 14:50
Top Gun: Fire at Will! (1996) Kirk20 0 1.033 23.11.2010 12:38
Captain Buzz Lightyear – Star Command (2000) Kirk20 5 520 21.11.2010 16:35
Harry Potter und der Gefangene von Askaban (2004) Kirk20 1 3.492 18.11.2010 20:17
Fenimore Fillmore: The Westerner (2004) Kirk20 1 1.476 17.11.2010 21:42
Oben (2009) Kirk20 1 502 14.11.2010 21:45
Disneys Donald Duck: Phantomias - Platyrhynchos Kineticus (2002) Kirk20 0 863 14.11.2010 19:49
Tony Tough and the Night of Roasted Moths (2003) Kirk20 0 476 13.11.2010 20:17
Command & Conquer: Alarmstufe Rot 3 (2008) (1, 2, 3) Commander 33 3.545 13.11.2010 18:27
Batman Begins (2005) Kirk20 1 564 13.11.2010 12:57
Darkstar One (2006) Kirk20 1 1.910 12.11.2010 19:39
Lands of Lore III (1999) Kirk20 0 1.522 11.11.2010 16:15
Der Herr der Ringe: Die Abenteuer von Aragorn (2010) Kirk20 10 1.193 05.11.2010 20:10
Professor Layton und die verlorene Zukunft Alamar 3 1.176 05.11.2010 17:07
James Bond 007: Blood Stone (2010) Kirk20 6 1.353 04.11.2010 11:48
Disneys Aladdin: Nasiras Rache (2001) Kirk20 3 706 28.10.2010 18:30
G-Police (1997) Kirk20 0 1.098 28.10.2010 18:15
Wer wird Millionär? (2000) Kirk20 1 703 28.10.2010 17:36
Rome Total War Synchronstimmen Plautus 2 403 22.10.2010 19:03
Call of Juarez: Bound in Blood Topper Harley 6 1.051 21.10.2010 15:32
Ballerburg (2001) Persian 0 507 21.10.2010 10:08
Ghost in the Shell (1997) Kirk20 4 628 20.10.2010 05:02
Disneys Hercules (1997) Kirk20 5 1.573 19.10.2010 13:50
Disneys Tarzan (1999) Kirk20 0 518 18.10.2010 23:43
God of War 1 + 2 (Videospiele) Metro 12 2.285 18.10.2010 23:08
Disneys Dinosaurier (2000) Kirk20 0 528 17.10.2010 19:39
Berlin Connection (1998) Kirk20 0 2.545 17.10.2010 18:46
Ceville (2009) lysander 6 792 17.10.2010 13:34
Deus Ex: Invisible War (2003) Kirk20 4 2.336 17.10.2010 00:18
Kane & Lynch 2: Dog Days (1, 2) Topper Harley 22 2.307 16.10.2010 23:57
KnightShift (2003) Alamar 2 1.352 15.10.2010 21:32
Rayman 3: Hoodlum Havoc (2003) Kirk20 1 1.559 14.10.2010 16:10
Star Trek: Der Aufstand (1999) Kirk20 5 724 13.10.2010 17:31
Buried in Time: Verschollen in der Zeit (1995) Kirk20 2 1.251 10.10.2010 01:13
Gothic (2001) SFC 12 3.512 09.10.2010 15:45
Gothic 3 (2006) SFC 5 1.745 06.10.2010 19:07
The Nomad Soul (1999) Kirk20 0 636 05.10.2010 23:24
Wolfenstein (2009) (1, 2) Kirk20 15 2.273 01.10.2010 20:36
Formula 1 2010 (2010) Shepard 12 943 27.09.2010 17:55
 Sprung Seite « zurück  1 - 16  17  18  19  20  21  22  23 - 27  weiter »

Farb-Legende: blau = Spekulation, orange = Trailer-Besetzung, grün = endgültige Besetzung, rot = Korrektur/Ergänzung zur endgültigen Besetzung


Wir lieben Synchron.
Erreichbar unter
215072.homepagemodules.de -- forum.serien-synchron.de -- forum.seriensynchron.de

Weitere Smileys auf www.smilie-harvester.de


Xobor Forum Software von Xobor | Forum, Fotos, Chat und mehr mit Xobor
Datenschutz